Regional Weather Roundup
Issued by NWS

Home | Current Version | Previous Version | Text Only | Print | Product List | Glossary Off
Versions: 1 2 3 4 5 6 7 8 9 10 11 12 13 14 15 16 17 18 19 20 21 22 23 24 25 26 27 28 29 30 31 32 33 34 35 36 37 38 39 40 41 42 43 44 45 46 47 48 49 50

000
ASUS45 KBOU 071707
RWRCO

WEATHER ROUNDUP FOR COLORADO
NATIONAL WEATHER SERVICE DENVER/BOULDER CO
1000 AM MST SUN FEB 07 2016

NOTE: "FAIR" INDICATES FEW OR NO CLOUDS BELOW 12000 FEET WITH NO
SIGNIFICANT WEATHER AND/OR OBSTRUCTIONS TO VISIBILITY.

COZ001>005-013-030-031-071800-
...NORTHWEST COLORADO...

CITY           SKY/WX    TMP DP  RH WIND       PRES   REMARKS
CRAIG          CLOUDY     8   4  83 CALM      30.50R
HAYDEN         CLOUDY    19   9  63 CALM      30.46R
MEEKER         CLOUDY    17  11  77 CALM      30.48R
MOUNT WERNER   NOT AVBL
STEAMBOAT SPGS CLOUDY    17  11  75 CALM      30.46R
WALDEN         CLOUDY    27  16  63 W16       30.34R WCI  14
$$

COZ006>008-011-071800-
...WEST CENTRAL VALLEYS...

CITY           SKY/WX    TMP DP  RH WIND       PRES   REMARKS
GRAND JUNCTION CLOUDY    20  17  88 CALM      30.55S
MONTROSE       CLOUDY    22  13  68 E3        30.55R
EAGLE          MOSUNNY   12   7  79 CALM      30.50S
RIFLE          SUNNY     16   9  74 CALM      30.54S
DELTA          CLOUDY    25  16  69 CALM      30.56S
NUCLA          CLOUDY    23  14  68 CALM      30.54S
$$

COZ017>023-064>068-071800-
...SOUTHWEST COLORADO...

CITY           SKY/WX    TMP DP  RH WIND       PRES   REMARKS
DURANGO        CLOUDY    15  10  80 NE5       30.41R WCI   8
CORTEZ         CLOUDY    29  16  58 SE5       30.43S WCI  24
PAGOSA SPRINGS CLOUDY   N/A N/A N/A CALM      30.40R
TELLURIDE      CLOUDY    28  15  58 CALM      30.46S
WOLF CREEK PAS CLOUDY    27   5  39 NE5       30.44R WCI  21
$$

COZ009-010-012-014-032>034-037-058>063-071800-
...CENTRAL COLORADO...

CITY           SKY/WX    TMP DP  RH WIND       PRES   REMARKS
ASPEN          CLOUDY    23  14  68 CALM      30.44R
BUENA VISTA    CLOUDY    36  14  40 NW22G28   30.31S
COPPER MTN     CLOUDY    19   7  58 W25G32    30.36R WCI   2
BERTHOUD PASS  LGT SNOW   9  -2  61 NW38G52   30.30R VSB 1   WCI -16
COTTONWOOD PAS CLOUDY    34   5  29 W37G62    30.28R WCI  19
GUNNISON       CLOUDY    -6 -27  34 CALM      30.56R
KREMMLING      CLOUDY    23  10  58 E6        30.42R WCI  16
LEADVILLE      CLOUDY    25   7  46 NW10G21   30.38R WCI  15
MONARCH PASS   CLOUDY    14  10  85 MISG      30.48R
SALIDA         NOT AVBL
SUNLIGHT       CLOUDY    21  16  79 CALM        N/A
WILKERSON PASS CLOUDY    23   5  46 NW10G25   30.31R WCI  12
$$

COZ069>075-071800-
...SAN LUIS VALLEY/SANGRE DE CRISTO MOUNTAINS...

CITY           SKY/WX    TMP DP  RH WIND       PRES   REMARKS
ALAMOSA        CLOUDY    17  10  74 CALM      30.39R
LA VETA PASS   CLOUDY    28   9  43 MISG      30.32R
SAGUACHE       CLOUDY    37  18  44 S5        30.37S
$$

COZ035-036-038>040-071800-
...NORTHERN COLORADO FRONT RANGE...

CITY           SKY/WX    TMP DP  RH WIND       PRES   REMARKS
DENVER INTL AP MOSUNNY   29  18  63 E20       30.31R WCI  16
DMNS CITY PARK   N/A     32  18  55 E16G29    30.32R WCI  21
AURORA         MOSUNNY   29  19  64 E21       30.32R WCI  16
FRONT RANGE AP MOSUNNY   28  19  69 NE12      30.33R WCI  18
ERIE MUNI ARPT SUNNY     32  19  60 E12G25    30.32R WCI  23
BOULDER MUN AP SUNNY     32  19  59 E8        30.34R WCI  25
CENTENNIAL     MOSUNNY   35  19  52 E13       30.28R WCI  26
BROOMFIELD     MOSUNNY   32  21  64 E16       30.30R WCI  21
FORT COLLINS   SUNNY     28  19  69 SE12      30.30R WCI  18
LONGMONT       SUNNY     34  20  56 E3        30.36R
$$

COZ041-046-047-076>085-087-088-071800-
...PIKES PEAK/PALMER DIVIDE AND SOUTHERN FOOTHILLS...

CITY           SKY/WX    TMP DP  RH WIND       PRES   REMARKS
COLO. SPRINGS  MOSUNNY   33  18  53 CALM      30.29R
A. F. ACADEMY  SUNNY     35  12  39 CALM      30.27R
SCHRIEVER AFB  FAIR      31  19  62 SE5       30.30R WCI  26
ELLICOTT       NOT AVBL
FALCON         SUNNY     35  15  44 S5        30.29R WCI  31
FORT CARSON    SUNNY     34  22  61 S10       30.27R WCI  26
LIMON          SUNNY     27  18  69 N15       30.33R WCI  15
MONUMENT HILL  SUNNY     32  14  47 NW5       30.29R WCI  27
TRINIDAD       CLOUDY    43  19  38 NW5       30.29R
$$

COZ042>045-048>051-090-091-071800-
...NORTHEAST COLORADO...

CITY           SKY/WX    TMP DP  RH WIND       PRES   REMARKS
GREELEY ARPT   SUNNY     30  21  69 NE9       30.33R WCI  22
AKRON          CLOUDY    28  22  78 N24G35    30.31R WCI  14
BURLINGTON     SUNNY     31  19  61 NW21      30.32R WCI  18
WRAY           PTSUNNY   34  24  68 NW21G31   30.32R WCI  22
STERLING       CLOUDY    32  25  74 N24G30    30.33R WCI  19
HOLYOKE        SUNNY     37  28  70 NW16G25   30.31R
FORT MORGAN    CLOUDY    34  24  66 N9        30.34R WCI  27
$$

COZ086-089-092>099-071800-
...SOUTHEAST COLORADO...

CITY           SKY/WX    TMP DP  RH WIND       PRES   REMARKS
PUEBLO         SUNNY     41  23  48 E7        30.29S
LA JUNTA       SUNNY     41  25  53 NW7       30.32R
LAMAR          SUNNY     45  25  45 VRB7      30.31R
SPRINGFIELD      N/A     46  19  34 NE8       30.28R
$$



USA.gov is the U.S. government's official web portal to all federal, state and local government web resources and services.